When you browse on this site, cookies collect data to enhance your experience and personalize the content and advertising you see.
Visit our Privacy Policy to learn more. By continuing to use the site, you agree to this use of cookies and data.
  • In Schweiz
  • Länderverzeichnis
  • Für 7 Tage
  • Wassertemperatur
  • Wetterkarte
  • Widgets
  • user-avatar
    Anmelden

    Stündliche Wetter Barcelona

    Heute, 13 November, Mittwoch

    Zeit Temperatur Niederschläge Wind Luftdruck Luftfeuchtigkeit
    00:00 +26°C° 0 mm 2 m/S 756 mmHg 93%
    01:00 +25°C° 0 mm 1 m/S 756 mmHg 94%
    02:00 +25°C° 0 mm 1 m/S 755 mmHg 95%
    03:00 +25°C° 0 mm 1 m/S 755 mmHg 96%
    04:00 +25°C° 0 mm 1 m/S 755 mmHg 96%
    05:00 +25°C° 0 mm 1 m/S 755 mmHg 96%
    06:00 +26°C° 0 mm 1 m/S 756 mmHg 93%
    07:00 +27°C° 0 mm 1 m/S 757 mmHg 90%
    08:00 +28°C° 0 mm 1 m/S 757 mmHg 87%
    09:00 +30°C° 0 mm 1 m/S 757 mmHg 80%
    10:00 +32°C° 0 mm 1 m/S 757 mmHg 73%
    11:00 +34°C° 0 mm 2 m/S 757 mmHg 65%
    12:00 +34°C° 0.2 mm 2 m/S 757 mmHg 67%
    13:00 +34°C° 0.2 mm 2 m/S 756 mmHg 68%
    14:00 +34°C° 0.2 mm 2 m/S 755 mmHg 69%
    15:00 +32°C° 0.3 mm 2 m/S 755 mmHg 76%
    16:00 +30°C° 0.3 mm 3 m/S 754 mmHg 82%
    17:00 +29°C° 0.3 mm 3 m/S 754 mmHg 88%
    18:00 +28°C° 0.1 mm 3 m/S 755 mmHg 90%
    19:00 +27°C° 0.1 mm 3 m/S 755 mmHg 91%
    20:00 +26°C° 0.1 mm 3 m/S 756 mmHg 93%
    21:00 +26°C° 0.1 mm 3 m/S 756 mmHg 93%
    22:00 +26°C° 0.1 mm 3 m/S 757 mmHg 94%
    23:00 +26°C° 0.1 mm 3 m/S 757 mmHg 94%

    Morgen, 14 November, Donnerstag

    Zeit Temperatur Niederschläge Wind Luftdruck Luftfeuchtigkeit
    00:00 +26°C° 0.3 mm 2 m/S 757 mmHg 94%
    01:00 +25°C° 0.3 mm 2 m/S 756 mmHg 94%
    02:00 +25°C° 0.3 mm 1 m/S 756 mmHg 95%
    03:00 +25°C° 0 mm 1 m/S 756 mmHg 95%
    04:00 +25°C° 0 mm 1 m/S 756 mmHg 95%
    05:00 +25°C° 0 mm 1 m/S 756 mmHg 95%
    06:00 +26°C° 0 mm 1 m/S 756 mmHg 93%
    07:00 +27°C° 0 mm 1 m/S 757 mmHg 91%
    08:00 +27°C° 0 mm 1 m/S 757 mmHg 90%
    09:00 +29°C° 0 mm 1 m/S 758 mmHg 82%
    10:00 +31°C° 0 mm 1 m/S 758 mmHg 74%
    11:00 +33°C° 0 mm 1 m/S 758 mmHg 67%
    12:00 +34°C° 0.3 mm 2 m/S 757 mmHg 69%
    13:00 +32°C° 0.3 mm 2 m/S 756 mmHg 72%
    14:00 +33°C° 0.3 mm 3 m/S 756 mmHg 75%
    15:00 +31°C° 0.2 mm 3 m/S 755 mmHg 77%
    16:00 +30°C° 0.2 mm 4 m/S 755 mmHg 79%
    17:00 +30°C° 0.2 mm 4 m/S 755 mmHg 81%
    18:00 +29°C° 0.1 mm 4 m/S 756 mmHg 83%
    19:00 +28°C° 0.1 mm 4 m/S 756 mmHg 84%
    20:00 +27°C° 0.1 mm 4 m/S 756 mmHg 86%
    21:00 +27°C° 0.1 mm 4 m/S 757 mmHg 87%
    22:00 +27°C° 0.1 mm 4 m/S 757 mmHg 87%
    23:00 +27°C° 0.1 mm 3 m/S 757 mmHg 88%

    übermorgen, 15 November, Freitag

    Zeit Temperatur Niederschläge Wind Luftdruck Luftfeuchtigkeit
    00:00 +26°C° 0.1 mm 3 m/S 757 mmHg 89%
    01:00 +26°C° 0.1 mm 3 m/S 757 mmHg 90%
    02:00 +26°C° 0.1 mm 3 m/S 756 mmHg 91%
    03:00 +25°C° 0 mm 3 m/S 756 mmHg 92%
    04:00 +25°C° 0 mm 3 m/S 756 mmHg 92%
    05:00 +25°C° 0 mm 3 m/S 756 mmHg 93%
    06:00 +26°C° 0.1 mm 3 m/S 757 mmHg 92%
    07:00 +27°C° 0.1 mm 3 m/S 757 mmHg 90%
    08:00 +28°C° 0.1 mm 2 m/S 757 mmHg 88%
    09:00 +29°C° 0 mm 3 m/S 757 mmHg 81%
    10:00 +31°C° 0 mm 3 m/S 757 mmHg 75%
    11:00 +33°C° 0 mm 3 m/S 757 mmHg 68%
    12:00 +33°C° 0.2 mm 3 m/S 757 mmHg 70%
    13:00 +33°C° 0.2 mm 4 m/S 756 mmHg 71%
    14:00 +33°C° 0.2 mm 4 m/S 755 mmHg 73%
    15:00 +32°C° 0.1 mm 4 m/S 755 mmHg 76%
    16:00 +30°C° 0.1 mm 5 m/S 754 mmHg 78%
    17:00 +29°C° 0.1 mm 5 m/S 754 mmHg 81%
    18:00 +28°C° 0 mm 5 m/S 755 mmHg 83%
    19:00 +28°C° 0 mm 4 m/S 755 mmHg 85%
    20:00 +27°C° 0 mm 4 m/S 756 mmHg 87%
    21:00 +27°C° 0 mm 4 m/S 756 mmHg 87%
    22:00 +27°C° 0 mm 3 m/S 756 mmHg 88%
    23:00 +26°C° 0 mm 3 m/S 756 mmHg 89%

    16 November, Samstag

    Zeit Temperatur Niederschläge Wind Luftdruck Luftfeuchtigkeit
    00:00 +26°C° 0 mm 3 m/S 756 mmHg 90%
    01:00 +26°C° 0 mm 3 m/S 755 mmHg 91%
    02:00 +25°C° 0 mm 2 m/S 755 mmHg 92%
    03:00 +25°C° 0 mm 2 m/S 755 mmHg 93%
    04:00 +25°C° 0 mm 2 m/S 755 mmHg 94%
    05:00 +25°C° 0 mm 2 m/S 755 mmHg 94%
    06:00 +26°C° 0 mm 2 m/S 755 mmHg 91%
    07:00 +27°C° 0 mm 2 m/S 756 mmHg 87%
    08:00 +28°C° 0 mm 2 m/S 756 mmHg 83%
    09:00 +29°C° 0 mm 2 m/S 756 mmHg 78%
    10:00 +30°C° 0 mm 2 m/S 756 mmHg 72%
    11:00 +31°C° 0 mm 2 m/S 756 mmHg 67%
    12:00 +31°C° 0.1 mm 3 m/S 755 mmHg 68%
    13:00 +31°C° 0.1 mm 3 m/S 754 mmHg 69%
    14:00 +32°C° 0.1 mm 4 m/S 753 mmHg 70%
    15:00 +30°C° 0 mm 4 m/S 753 mmHg 74%
    16:00 +29°C° 0 mm 4 m/S 753 mmHg 78%
    17:00 +29°C° 0 mm 4 m/S 753 mmHg 81%
    18:00 +28°C° 0 mm 4 m/S 753 mmHg 84%
    19:00 +27°C° 0 mm 3 m/S 754 mmHg 87%
    20:00 +27°C° 0 mm 3 m/S 754 mmHg 90%
    21:00 +27°C° 0 mm 3 m/S 755 mmHg 90%
    22:00 +27°C° 0 mm 3 m/S 755 mmHg 90%
    23:00 +26°C° 0 mm 3 m/S 755 mmHg 89%

    17 November, Sonntag

    Zeit Temperatur Niederschläge Wind Luftdruck Luftfeuchtigkeit
    00:00 +26°C° 0 mm 3 m/S 755 mmHg 90%
    01:00 +26°C° 0 mm 3 m/S 754 mmHg 90%
    02:00 +26°C° 0 mm 2 m/S 754 mmHg 91%
    03:00 +26°C° 0 mm 2 m/S 754 mmHg 92%
    04:00 +26°C° 0 mm 2 m/S 754 mmHg 93%
    05:00 +25°C° 0 mm 2 m/S 754 mmHg 94%
    06:00 +26°C° 0.1 mm 2 m/S 755 mmHg 90%
    07:00 +27°C° 0.1 mm 2 m/S 755 mmHg 87%
    08:00 +28°C° 0.1 mm 1 m/S 756 mmHg 83%
    09:00 +29°C° 0 mm 2 m/S 756 mmHg 78%
    10:00 +31°C° 0 mm 2 m/S 756 mmHg 72%
    11:00 +32°C° 0 mm 2 m/S 756 mmHg 66%
    12:00 +32°C° 0 mm 2 m/S 755 mmHg 67%
    13:00 +33°C° 0 mm 3 m/S 754 mmHg 67%
    14:00 +33°C° 0 mm 3 m/S 753 mmHg 68%
    15:00 +31°C° 0 mm 3 m/S 753 mmHg 72%
    16:00 +30°C° 0 mm 3 m/S 753 mmHg 76%
    17:00 +29°C° 0 mm 3 m/S 753 mmHg 80%
    18:00 +28°C° 0 mm 3 m/S 753 mmHg 83%
    19:00 +27°C° 0 mm 3 m/S 754 mmHg 86%
    20:00 +27°C° 0 mm 3 m/S 755 mmHg 89%
    21:00 +26°C° 0 mm 3 m/S 755 mmHg 89%
    22:00 +26°C° 0 mm 2 m/S 755 mmHg 90%
    23:00 +26°C° 0 mm 2 m/S 755 mmHg 91%

    18 November, Montag

    Zeit Temperatur Niederschläge Wind Luftdruck Luftfeuchtigkeit
    00:00 +26°C° 0 mm 2 m/S 755 mmHg 91%
    01:00 +26°C° 0 mm 2 m/S 755 mmHg 92%
    02:00 +25°C° 0 mm 1 m/S 755 mmHg 93%
    03:00 +25°C° 0.2 mm 2 m/S 755 mmHg 93%
    04:00 +25°C° 0.2 mm 2 m/S 755 mmHg 93%
    05:00 +25°C° 0.2 mm 2 m/S 755 mmHg 93%
    06:00 +26°C° 0.2 mm 2 m/S 756 mmHg 91%
    07:00 +27°C° 0.2 mm 2 m/S 756 mmHg 89%
    08:00 +27°C° 0.2 mm 1 m/S 757 mmHg 87%
    09:00 +29°C° 0.1 mm 1 m/S 757 mmHg 80%
    10:00 +31°C° 0.1 mm 1 m/S 757 mmHg 73%
    11:00 +32°C° 0.1 mm 2 m/S 757 mmHg 67%
    12:00 +32°C° 0.3 mm 2 m/S 756 mmHg 70%
    13:00 +31°C° 0.3 mm 2 m/S 755 mmHg 73%
    14:00 +31°C° 0.3 mm 2 m/S 755 mmHg 76%
    15:00 +30°C° 0.2 mm 2 m/S 755 mmHg 78%
    16:00 +29°C° 0.2 mm 2 m/S 754 mmHg 80%
    17:00 +29°C° 0.2 mm 2 m/S 754 mmHg 82%
    18:00 +28°C° 0.1 mm 2 m/S 755 mmHg 84%
    19:00 +27°C° 0.1 mm 2 m/S 756 mmHg 86%
    20:00 +27°C° 0.1 mm 3 m/S 756 mmHg 88%
    21:00 +26°C° 0 mm 3 m/S 756 mmHg 89%
    22:00 +26°C° 0 mm 3 m/S 756 mmHg 90%
    23:00 +26°C° 0 mm 3 m/S 757 mmHg 91%
    Mehr zeigen